THOR ABLESTAR DEB, 416

Orbit data source: Space-Track

THOR ABLESTAR DEB, 416 is space debris in LEO originally from a launch on Thu, 29 Jun 1961 UTC launched from the Air Force Eastern Test Range (AFETR). Debris objects in space refer to the collection of defunct objects orbiting the Earth. Examples of debris include non-operational satellites, rocket bodies, and fragments generated from explosions, collisions, or faulty payload assembly.

Loading next visibility...
Identifier
416, 1961-015ER
Orbit
LEO
Country
Flag of USUS
Related business
Manufacturer
Unknown
Mission
Spacecraft
Bus & Motor
Unknown
Mass
Unknown
Launch date (UTC)
1961-06-29 (64 years ago)
Launch vehicle
Unknown
Launch site
Air Force Eastern Test Range (AFETR)
Object type
Payload
Rocket body
Debris
Shape & HBR
Unknown shape, 0.1 m
Radar Cross Section
Small (<0.1 m²)

Expand to show TLE details & history
Last TLE update: 1 day ago

TLE from 1 day ago
0 THOR ABLESTAR DEB
1 00416U 61015ER  25310.50914296  .00000472  00000-0  28021-3 0  9990
2 00416  66.4984 128.6566 0083436 314.0401  45.3834 14.14511108300355
Epoch: 2025-11-06T12:13Z
TLE epoch observation values (Epoch: 2025-11-06T12:13:09.951Z)
Latitude
-0.00004°
Longitude
-100.60132°
Altitude
803.981 km
Speed
7.474 km/s
True Right ascension
08h 34m 37s
True Declination
0° 00' 00"
Sunlit
Object was in daylight at epoch
Visualization orbit readout
Latitude
Unknown
Longitude
Unknown
Altitude
Unknown
Speed
Unknown
Apparent Right ascension
Unknown
Apparent Declination
Unknown
Sunlit
N/A
Visualization observer readout
Local Sidereal Time
08:46:58
Azimuth
Unknown
Elevation
Unknown
Doppler factor
Unknown
Orbital elements
Apogee altitude
902.631 km
Perigee altitude
782.141 km
Semi-major axis
7,220.523 km
Eccentricity
0.00834
Inclination
66.4984°
RAAN
128.6566°
Arg. of periapsis
314.0401°
True anomaly
46.06898°
Mean anomaly
45.3834°
Eccentric anomaly
45.72569°
Mean motion
3.53745 °/min
Orbital period
101.77 mins
BSTAR
0.00028021
Loading maneuver chart data...
Computing Atmospheric mass density...

Documentation

Showing up to 5 results
|